FENGYUN 1C DEB, 33676

Orbit data source: Space-Track

FENGYUN 1C DEB, 33676 is space debris in SSO originally from a launch on Mon, 10 May 1999 UTC launched from the Taiyaun Space Center, China (TSC). Fengyun 1C debris stems from the Chinese weather satellite Fengyun-1C, which was intentionally destroyed by a Chinese anti-satellite missile in 2007. This event dramatically increased the amount of space debris, with thousands of trackable fragments posing hazards to satellites and human spaceflight. The Fengyun 1C debris cloud has become a focal point in discussions about space sustainability and the need for international regulations to prevent the creation of new debris.

Loading next visibility...
Identifier
33676, 1999-025DFM
Orbit
SSO
Country
Flag of CNCN / PRC
Related business
Manufacturer
Unknown
Mission
Spacecraft
Bus & Motor
Unknown
Mass
Unknown
Launch date (UTC)
1999-05-10 (27 years ago)
Launch vehicle
Unknown
Launch site
Taiyaun Space Center, China (TSC)
Object type
Payload
Rocket body
Debris
Shape & HBR
Unknown shape, 0.1 m
Radar Cross Section
Small (<0.1 m²)

Expand to show TLE details & history
Last TLE update: 1 day ago

TLE from 1 day ago
0 FENGYUN 1C DEB
1 33676U 99025DFM 26145.05910625  .00000144  00000-0  55553-4 0  9992
2 33676  99.0747 183.3672 0202836 312.0572  46.3507 14.35733572676547
Epoch: 2026-05-25T01:25Z
TLE epoch observation values (Epoch: 2026-05-25T01:25:06.780Z)
Latitude
-0.00007°
Longitude
-80.56337°
Altitude
676.994 km
Speed
7.57 km/s
True Right ascension
12h 13m 28s
True Declination
0° 00' 00"
Sunlit
Object was in full shadow at epoch
Visualization orbit readout
Latitude
Unknown
Longitude
Unknown
Altitude
Unknown
Speed
Unknown
Apparent Right ascension
Unknown
Apparent Declination
Unknown
Sunlit
N/A
Visualization observer readout
Local Sidereal Time
20:38:46
Azimuth
Unknown
Elevation
Unknown
Doppler factor
Unknown
Orbital elements
Apogee altitude
914.769 km
Perigee altitude
624.798 km
Semi-major axis
7,147.92 km
Eccentricity
0.02028
Inclination
99.0747°
RAAN
183.3672°
Arg. of periapsis
312.0572°
True anomaly
48.06221°
Mean anomaly
46.3507°
Eccentric anomaly
47.20346°
Mean motion
3.59148 °/min
Orbital period
100.24 mins
BSTAR
0.000055553
Loading maneuver chart data...
Computing Atmospheric mass density...
Loading historical data...
Loading historical data...
Loading historical data...
Loading historical data...
Loading historical data...
Loading historical data...
Loading historical data...

Documentation

Showing up to 5 results
|